Location: Bienvillers
(50.1719°N, 2.6161°E)
Time: 19:20:48
(UTC+00:00)

Daily predictions for brighter satellites

Satellite Brightness Start Highest point End
(mag) Time Altitude Azimuth Time Altitude Azimuth Time Altitude Azimuth
IRS-1A Rocket 4.5 19:46:27 10° SSE 19:52:13 89° WSW 19:58:08 10° NNW
SPOT 3 Rocket 3.8 19:50:30 10° SE 19:55:31 54° ENE 20:00:33 10° N
Cosmos 1743 Rocket 3.7 19:51:29 10° NNW 19:55:50 80° W 20:00:10 10° S
BREEZE-M DEB (TANK) 4.5 19:52:41 10° W 19:56:26 80° S 20:08:09 10° ESE
Resurs 1-3 3.7 19:53:14 10° SSE 19:57:38 89° NE 20:02:03 10° NNW
Cosmos 1844 4.1 19:52:26 10° S 19:57:44 41° ESE 20:03:01 10° NE
BREEZE-M DEB (TANK) 4.1 19:53:43 10° W 19:57:56 52° S 20:04:56 10° ESE
Landsat 7 4.3 19:53:44 10° SE 19:58:17 47° ENE 20:02:51 10° N
Cosmos 968 Rocket 3.6 19:53:24 10° S 19:58:33 58° ESE 20:03:41 10° NNE
ATLAS 5 CENTAUR R/B 2.5 19:53:35 10° NW 19:58:54 64° NE 20:05:14 10° SE
ATLAS 2AS CENTAUR R/B 4.3 19:56:26 10° NW 20:03:11 32° NNE 20:09:33 10° ENE
BREEZE M DEB (TANK) 4.0 20:00:23 10° WSW 20:04:08 68° SSE 20:16:21 10° ENE
Intercosmos 25 Rocket 4.3 19:57:50 10° N 20:05:14 90° WNW 20:09:39 10° S
Cosmos 1486 Rocket 4.2 20:00:55 10° S 20:06:05 55° ESE 20:11:18 10° NNE
Cosmos 1500 Rocket 4.2 20:03:25 10° NNW 20:07:47 60° W 20:12:05 10° S
Cosmos 1833 Rocket 3.9 20:03:33 10° NNW 20:08:29 30° NE 20:13:26 10° ESE
IGS 5A 3.6 20:05:21 10° SSE 20:09:27 62° ENE 20:13:33 10° N
Cosmos 2221 3.7 20:07:39 10° SSW 20:11:49 47° WNW 20:16:02 10° N
BREEZE-M R/B 2.9 20:10:24 10° SSW 20:12:35 23° SSE 20:14:38 10° E
S3M 4.1 20:06:19 10° S 20:12:36 64° E 20:18:52 10° NNE
USA 186 4.3 20:12:42 10° SW 20:14:02 13° W 20:15:21 10° WNW
Cosmos 1666 Rocket 4.0 20:11:30 10° N 20:15:46 46° ENE 20:19:58 10° SSE
USA 215 4.2 20:13:33 10° ENE 20:19:48 49° N 20:26:02 10° WNW
Cosmos 1933 3.5 20:18:58 10° S 20:22:55 54° E 20:26:52 10° NNE
USA 305 3.6 20:19:09 10° WNW 20:23:20 52° N 20:27:31 10° E
USA 245 3.1 20:23:48 15° SE 20:25:12 28° ENE 20:27:12 10° N
Cosmos 1242 Rocket 2.8 20:24:58 10° S 20:28:25 48° E 20:31:52 10° NNE
OBJECT-B 3.5 20:26:20 10° SW 20:28:42 18° W 20:31:04 10° NW
Cosmos 1553 Rocket 4.3 20:25:10 10° SSW 20:31:17 71° WNW 20:37:31 10° N
BREEZE M DEB (TANK) 2.1 20:25:55 10° W 20:31:56 82° S 20:34:07 13° E
Cosmos 1437 Rocket 3.1 20:28:32 10° SSW 20:32:24 69° WNW 20:36:21 10° N
Cosmos 773 Rocket 4.4 20:27:25 10° NNW 20:32:38 53° ENE 20:37:01 14° SE
Resurs 01 Rocket 2.0 20:30:36 10° S 20:35:00 66° WSW 20:39:28 10° NNW
Sich 1 3.3 20:33:49 10° NNW 20:38:06 68° W 20:42:26 10° S
Spot 2 Rocket 3.7 20:34:12 13° SSE 20:38:37 59° ENE 20:43:35 10° N
COSMOS 2406 3.9 20:33:42 10° NNW 20:39:09 44° NE 20:43:43 14° ESE
SJ 16-02 3.3 20:38:19 12° ESE 20:39:17 13° E 20:41:16 10° ENE
Meteor 1-20 Rocket 4.4 20:35:30 10° NNW 20:41:10 76° W 20:46:41 10° S
Cosmos 2082 Rocket 3.5 20:36:51 10° NNW 20:41:44 29° NE 20:46:28 10° ESE
USA 306 3.5 20:38:19 10° WNW 20:42:32 56° NNE 20:46:45 10° E
CZ-4C R/B 3.1 20:37:17 10° NW 20:44:11 67° NE 20:51:18 14° ESE
Cosmos 1500 3.7 20:41:11 10° N 20:44:48 43° ENE 20:47:10 19° SE
Gbstr 26 Del rocket 4.4 20:38:14 10° WSW 20:46:11 85° N 20:52:58 10° ENE
Cosmos 1782 2.9 20:43:16 11° S 20:46:59 55° E 20:50:54 10° NNE
ERS-1 Rocket 3.3 20:50:52 17° SE 20:54:34 55° ENE 20:59:29 10° N
SPOT 5 3.3 20:52:52 18° SE 20:56:33 56° ENE 21:01:42 10° N
Cosmos 1503 Rocket 3.9 20:51:42 10° SSW 20:56:52 82° ESE 21:02:06 10° NNE
SOZ 4.1 20:57:18 10° WSW 20:59:50 90° SSW 21:02:12 10° ENE
USA 290 3.7 20:57:37 10° NW 21:00:34 32° WSW 21:02:58 13° SSW
Cosmos 1271 Rocket 4.3 21:00:22 18° ESE 21:01:26 21° E 21:04:27 10° NE
Cosmos 1151 Rocket 3.0 20:58:04 10° S 21:02:25 81° E 21:06:50 10° NNE
Cosmos 1777 Rocket 4.5 20:58:39 15° SSE 21:02:32 40° ESE 21:07:23 10° NE
CREW DRAGON DEMO-1 DEB 2.7 21:00:32 10° WNW 21:03:11 67° N 21:04:38 23° E
Cosmos 1602 4.1 20:59:22 10° NNW 21:03:11 60° W 21:06:20 14° S
Terra 2.3 21:02:23 20° SE 21:05:21 47° ENE 21:09:56 10° N
USA 307 3.2 21:03:39 10° WNW 21:07:55 64° NNE 21:11:25 15° E
Cosmos 2278 Rocket 2.9 21:05:44 18° SSE 21:09:04 34° ESE 21:14:06 10° NE
CZ-2C R/B 4.0 21:07:11 10° N 21:11:38 70° WNW 21:16:07 10° SSW
Cosmos 1515 Rocket 3.7 21:17:35 23° SSE 21:20:10 58° E 21:24:30 10° NNE
X-37B 1.9 21:17:30 10° WSW 21:20:09 25° SSW 21:20:09 25° SSW
SWARM C 4.5 21:17:59 10° N 21:21:19 85° W 21:22:53 29° S
Cosmos 1844 Rocket 3.8 21:15:58 10° SW 21:21:20 47° NW 21:26:46 10° NNE
SPOT 1/Viking Rocket 4.2 21:16:46 13° S 21:21:21 50° W 21:26:25 10° NNW
USA 308 3.1 21:17:08 10° WNW 21:21:26 71° NNE 21:24:24 19° E
SWARM A 4.2 21:18:05 10° N 21:21:26 81° W 21:23:01 28° S
Cosmos 2084 3.6 21:17:53 12° SSW 21:21:32 45° SE 21:25:36 10° NE
Cosmos 1536 4.2 21:18:52 10° N 21:22:21 27° ENE 21:23:48 22° ESE
ARIANE 5 R/B 3.0 21:20:39 19° S 21:23:38 60° WSW 21:27:57 10° NNW
JB-3 4.2 21:21:23 10° NNE 21:25:20 88° ESE 21:27:56 20° SSW
Cosmos 1437 2.5 21:25:46 30° SSW 21:27:00 72° WNW 21:29:51 10° N
Cosmos 1633 Rocket 4.1 21:23:46 10° NNW 21:27:55 42° W 21:31:23 14° SSW
Cosmos 1354 Rocket 4.3 21:23:01 10° SSW 21:28:13 68° WNW 21:33:29 10° NNE
Cosmos 2154 Rocket 4.4 21:23:16 10° N 21:29:28 50° ENE 21:33:02 24° SE
Cosmos 1812 2.6 21:31:31 27° S 21:33:31 83° E 21:37:24 10° NNE
Cosmos 1470 Rocket 4.0 21:32:49 10° NNW 21:37:14 58° W 21:39:57 22° SSW
Cosmos 2184 Rocket 4.0 21:31:18 10° N 21:37:35 78° E 21:41:19 26° SSE
Meteor 1-5 Rocket 4.2 21:33:20 10° NNW 21:38:47 77° W 21:42:00 25° S
Cosmos 1328 Rocket 4.3 21:36:50 11° SSW 21:41:00 53° WNW 21:45:21 10° N
NOSS 3-4 (A) 3.9 21:35:06 10° NW 21:41:58 77° NE 21:47:02 23° SE
NOSS 3-4 (C) 3.9 21:35:13 10° NW 21:42:04 77° NE 21:47:09 23° SE
ATLAS 5 CENTAUR R/B 3.4 21:38:24 10° WNW 21:43:29 34° WSW 21:47:13 19° S
Cosmos 2074 Rocket 4.0 21:39:13 10° N 21:45:33 90° WSW 21:49:23 26° S
Cosmos 1666 2.8 21:47:13 10° NNW 21:50:56 65° W 21:52:11 38° SSW
Cosmos 1933 Rocket 3.8 21:47:30 10° NNW 21:51:48 61° W 21:53:49 30° SSW
NOSS 3-3 (A) 3.9 21:46:39 10° SW 21:52:29 90° NW 21:59:16 10° NE
NOSS 3-3 (C) 3.9 21:46:45 10° SW 21:52:36 90° SE 21:59:22 10° NE
Cosmos 1833 Rocket 2.9 21:47:16 10° NW 21:52:51 63° WSW 21:55:42 29° S
Nadezhda 1 Rocket 4.1 21:51:52 28° SSE 21:55:12 61° E 22:01:21 10° NNE
ATLAS 2AS CENTAUR R/B 3.1 21:48:08 10° NW 21:55:37 62° NE 22:00:32 21° ESE
Meteor 2-12 Rocket 4.4 21:49:47 10° N 21:55:54 81° E 21:59:01 31° SSE
Cosmos 1743 3.8 21:52:39 10° N 21:56:07 31° ENE 21:56:52 29° E
BREEZE-M DEB (TANK) 3.0 21:57:03 10° W 21:57:58 23° W 21:57:58 23° W
Cosmos 1538 Rocket 4.4 21:56:10 10° NNW 22:01:27 59° WSW 22:03:55 31° S
BREEZE-M DEB (TANK) 3.4 21:53:41 10° W 22:02:09 70° NNW 22:04:41 12° ENE
USA 215 3.7 21:55:54 10° E 22:02:19 61° NNE 22:08:45 10° WNW
USA 305 2.8 21:59:13 10° WNW 22:03:29 75° SSW 22:04:41 46° SE
Iridium 4 Rocket 4.0 22:01:47 22° SSW 22:05:36 67° W 22:11:32 10° N
Cosmos 1610 Rocket 4.4 22:01:26 10° N 22:07:38 86° E 22:10:38 32° S
Cosmos 158 Rocket 3.9 22:08:54 10° NNW 22:13:47 71° WSW 22:15:28 40° S
Cosmos 1733 Rocket 3.9 22:11:00 10° N 22:15:02 37° ENE 22:16:02 32° ESE
SJ 16-02 1.3 22:15:14 33° SSW 22:17:11 83° WNW 22:21:40 10° NNE
Cosmos 2228 Rocket 3.0 22:17:34 40° SSW 22:19:06 83° W 22:23:36 10° N
Cosmos 1680 Rocket 3.6 22:14:06 10° NNW 22:19:28 75° ENE 22:21:27 39° SE
Cosmos 2341 Rocket 4.2 22:13:57 10° N 22:20:19 62° ENE 22:23:08 34° SE
Meteor 1-27 Rocket 3.7 22:18:37 33° S 22:21:23 82° E 22:27:20 10° NNE
USA 306 2.9 22:18:21 10° WNW 22:22:35 60° SSW 22:23:05 55° S
COSMOS 2406 4.1 22:18:13 10° NW 22:23:24 38° WSW 22:25:47 26° SSW
Cosmos 1818 4.3 22:19:05 10° NW 22:24:25 48° NE 22:27:40 22° ESE
Cosmos 1937 Rocket 4.4 22:24:06 30° ESE 22:24:35 30° E 22:29:04 10° NE
Cosmos 2082 Rocket 2.3 22:20:42 10° NNW 22:26:16 65° WSW 22:28:19 39° S
CZ-4C R/B 3.6 22:25:59 10° NW 22:32:45 42° WSW 22:36:28 27° SSW
Gbstr 26 Del rocket 4.1 22:26:21 10° WNW 22:33:53 83° N 22:40:00 10° E
ERBS 3.9 22:32:26 10° NW 22:35:29 32° NNE 22:37:05 21° ENE
Cosmos 1271 Rocket 3.9 22:35:27 26° WSW 22:37:09 40° WNW 22:40:58 10° N
Cosmos 2218 Rocket 4.3 22:33:22 10° N 22:39:33 57° ENE 22:42:06 35° SE
Terra 3.5 22:41:15 19° SW 22:43:20 25° W 22:47:16 10° NW
Okean 1 3.6 22:46:34 51° E 22:46:38 51° E 22:50:32 10° NNE
USA 307 3.4 22:43:45 10° WNW 22:47:31 44° SW 22:47:31 44° SW
Cosmos 1340 Rocket 3.0 22:45:07 10° NNW 22:49:10 61° W 22:49:40 56° SW
Cosmos 2278 Rocket 3.0 22:47:31 10° SW 22:53:00 49° NW 22:58:31 10° NNE
Spot 4 3.8 22:53:27 52° S 22:54:38 78° WSW 22:59:32 10° NNW
Cosmos 1544 3.8 22:51:40 10° NNW 22:55:06 41° W 22:55:12 41° W
Cosmos 1515 3.6 22:55:28 75° E 22:55:28 75° E 22:59:12 10° NNE
Cosmos 1862 Rocket 3.6 22:57:00 57° ESE 22:57:21 60° E 23:01:38 10° NNE
Cosmos 1536 4.1 22:55:11 10° NNW 22:58:47 31° W 22:59:30 29° WSW
Cosmos 1898 Rocket 3.4 22:57:39 48° S 22:59:06 77° ESE 23:04:28 10° NNE
USA 308 3.8 22:57:17 10° WNW 23:00:29 34° WSW 23:00:29 34° WSW
Cosmos 2369 Rocket 3.2 23:03:27 28° ESE 23:03:58 29° ESE 23:08:44 10° NE
RESURS DK-1 4.2 23:04:17 10° NNW 23:07:51 26° NE 23:09:53 18° E
COBE Rocket 4.1 23:07:04 47° SE 23:08:24 67° ENE 23:13:31 10° N
Gblst 52 Del rocket 4.4 23:01:31 10° WNW 23:08:31 88° NNE 23:14:34 10° ESE
Meteor 2-9 Rocket 4.2 23:02:56 10° NNW 23:08:49 89° ENE 23:10:35 47° SSE
SL-8 Rocket 4.0 23:02:54 10° NNW 23:09:16 80° W 23:11:34 42° S
Cosmos 1975 2.7 23:08:03 10° N 23:12:03 73° E 23:12:12 72° E
Cosmos 2084 Rocket 3.4 23:08:28 10° NW 23:12:44 84° NE 23:13:20 65° ESE
Cosmos 1943 Rocket 2.3 23:11:55 48° SSE 23:13:05 59° ESE 23:18:37 10° NE
SAR-Lupe-2 4.0 23:11:24 10° NNE 23:14:31 53° ENE 23:14:31 53° ENE
ALOS 2 2.5 23:16:05 67° S 23:16:37 80° WSW 23:21:02 10° NNW
Cosmos 44 3.5 23:14:26 10° NW 23:19:51 63° SW 23:20:48 53° S
DNEPR-1 R/B 4.2 23:19:56 50° SSE 23:20:49 56° SE 23:25:42 10° NE
Cosmos 1707 Rocket 4.3 23:20:01 37° WSW 23:21:05 45° WNW 23:25:21 10° N
Meteor 2-4 Rocket 4.0 23:20:31 43° SE 23:22:00 55° E 23:27:31 10° NNE
Cosmos 990 Rocket 4.3 23:20:02 34° SW 23:22:13 61° WNW 23:27:27 10° NNE
Okean 1-7 3.5 23:30:15 45° E 23:30:25 45° E 23:34:31 10° NNE
Cosmos 372 Rocket 4.0 23:30:36 54° SSE 23:31:21 61° ESE 23:36:23 10° NNE
Cosmos 1743 4.3 23:28:38 10° NW 23:31:45 24° W 23:31:55 24° W
Cosmos 1238 Rocket 4.4 23:28:37 10° NNW 23:34:46 50° W 23:36:39 37° SW
Meteor 1-18 Rocket 4.2 23:33:04 47° SSW 23:34:48 82° WNW 23:40:26 10° N
SL-24 R/B - RUBIN 2 4.3 23:31:56 10° NW 23:37:09 45° WSW 23:37:29 44° SW
SeaSat 1 2.8 23:33:08 10° NE 23:37:54 45° ESE 23:38:19 44° SE
Cosmos 1656 Rocket 4.5 23:39:04 33° ESE 23:39:45 34° ESE 23:44:39 10° NE
Cosmos 2242 Rocket 3.6 23:40:21 61° SE 23:40:43 64° E 23:45:09 10° NNE
USA 215 3.2 23:42:21 34° SE 23:45:19 68° SW 23:51:52 10° WNW
ATLAS 2AS CENTAUR R/B 3.3 23:39:34 10° NW 23:46:19 41° WSW 23:47:57 36° SSW
Cosmos 2297 4.0 23:45:51 34° SW 23:48:21 64° WNW 23:54:02 10° NNE
CZ-2D R/B 4.5 23:49:29 10° ENE 23:51:23 12° E 23:53:16 10° ESE
Cosmos 1733 Rocket 4.5 23:49:08 10° NNW 23:52:41 25° W 23:53:07 24° W
SJ 16-02 4.0 23:54:07 10° W 23:56:32 14° NW 23:58:57 10° NNW
